Regional Weather Roundup
Issued by NWS

Home | Current Version | Previous Version | Graphics & Text | Print | Product List | Glossary On
Versions: 1 2 3 4 5 6 7 8 9 10 11 12 13 14 15 16 17 18 19 20 21 22 23 24 25 26 27 28 29 30 31 32 33 34 35 36 37 38 39 40 41 42 43 44 45 46 47 48 49 50
000
ASUS43 KMKX 280221
RWRWI

WISCONSIN REGIONAL WEATHER ROUNDUP
NATIONAL WEATHER SERVICE MILWAUKEE/SULLIVAN WI
900 PM CDT SAT AUG 27 2016

NOTE: "FAIR" INDICATES FEW OR NO CLOUDS BELOW 12,000 FEET WITH NO
SIGNIFICANT WEATHER AND/OR OBSTRUCTIONS TO VISIBILITY.

WIZ001-002-006>008-014>016-023>028-280300-
NORTHWEST WISCONSIN

CITY           SKY/WX    TMP DP  RH WIND       PRES   REMARKS
SUPERIOR ARPT  CLOUDY    61  60  96 CALM      30.04R
ASHLAND        CLOUDY    62  61  96 N3        30.04R
HAYWARD        CLOUDY    62  60  93 CALM      30.04S
SIREN          CLOUDY    63  62  97 CALM      30.05R
CUMBERLAND     CLOUDY    61  61 100 CALM      30.04R FOG
RICE LAKE      CLOUDY    63  62  95 CALM      30.06R FOG
CHETEK         NOT AVBL
LADYSMITH      CLOUDY    63  62  96 CALM      30.06S
EAU CLAIRE     CLOUDY    66  65  96 S5        30.04R
MENOMONIE      CLOUDY    65  65  97 CALM      30.04S
NEW RICHMOND   MOCLDY    63  63  98 SW3       30.04R
OSCEOLA        CLOUDY    64  64 100 CALM      30.06R
$$

WIZ003>005-009-010-017-018-280300-
NORTH CENTRAL WISCONSIN

CITY           SKY/WX    TMP DP  RH WIND       PRES   REMARKS
MANITOWISH WTR NOT AVBL
ARBOR VITAE    DRIZZLE   62  61  94 SW3       30.07R
WOODRUFF       DRIZZLE   62  61  94 SW3       30.07R
RHINELANDER    CLOUDY    63  62  97 SW6       30.08R
EAGLE RIVER    RAIN      62  61  99 CALM      30.07R
LAND O LAKES   CLOUDY    62  61  96 CALM      30.08R
PHILLIPS       CLOUDY    61  61 100 S5        30.05S FOG
TOMAHAWK       DRIZZLE   61  60  95 CALM      30.08R
MEDFORD        DRIZZLE   62  62 100 S3        30.07R
MERRILL        CLOUDY    63  63  99 SW3       30.08R
$$

WIZ029-030-035-036-043>047-280300-
CENTRAL WISCONSIN

CITY           SKY/WX    TMP DP  RH WIND       PRES   REMARKS
WAUSAU         CLOUDY    63  61  93 S7        30.06R
MOSINEE        CLOUDY    63  63 100 SE3       30.09R
MARSHFIELD     CLOUDY    64  62  93 S3        30.07R FOG
STEVENS POINT  CLOUDY    62  61  97 S3        30.08R FOG
WAUPACA        CLOUDY    67  66  97 CALM      30.07R
WAUTOMA        CLOUDY    64  64 100 SE3       30.07
WISC RAPIDS    CLOUDY    64  64 100 CALM      30.09R
CAMP DOUGLAS   CLOUDY    64  64 100 E3        30.06R FOG
$$

WIZ011>013-019>022-031-037>040-048>050-280300-
NORTHEAST WISCONSIN

CITY           SKY/WX    TMP DP  RH WIND       PRES   REMARKS
ANTIGO         CLOUDY    61  61  99 CALM      30.09R FOG
SHAWANO        CLOUDY    66  62  89 CALM      30.06S
OCONTO         NOT AVBL
STURGEON BAY   CLOUDY    64  63  96 CALM      30.06R
GREEN BAY      CLOUDY    65  65 100 CALM      30.05S
MANITOWOC      CLOUDY    64  62  93 CALM      30.07R FOG
APPLETON       CLOUDY    64  64 100 CALM      30.04S
CLINTONVILLE   CLOUDY    64  61  88 CALM      30.06S
OSHKOSH        MOCLDY    65  64  97 CALM      30.05S
$$

WIZ032>034-041-042-053>061-280300-
SOUTHWEST WISCONSIN

CITY           SKY/WX    TMP DP  RH WIND       PRES   REMARKS
LA CROSSE      CLOUDY    69  67  93 SE3       30.04R
SPARTA         CLOUDY    64  64 100 CALM      30.06R
VIROQUA        PTCLDY    65  65 100 SE3       30.07R
BOSCOBEL       FOG       66  65  96 CALM      30.06R VSB 1/2
PRAIRIE DU CHI PTCLDY    67  65  94 E3        30.05R
PLATTEVILLE    CLEAR     69  69  98 SE3       30.07R
$$

WIZ056-057-062-063-064-067-068-280300-
SOUTH CENTRAL WISCONSIN

CITY           SKY/WX    TMP DP  RH WIND       PRES   REMARKS
REEDSBURG      NOT AVBL
BARABOO/DELLS  CLOUDY    65  64  94 CALM      30.07R FOG
LONE ROCK      FOG       64  63  96 CALM      30.07R VSB 1/4
MINERAL POINT  CLEAR     70  68  94 CALM      30.07S
MADISON        PTCLDY    68  67  96 CALM      30.06R
MIDDLETON      CLEAR     67  67 100 CALM      30.08R
WATERTOWN      CLOUDY    69  69 100 N3        30.06R
MONROE         PTCLDY    70  68  94 N5        30.08R
JANESVILLE     MOCLDY    73  72  94 NW5       30.05R
$$

WIZ051-052-058>065-066-070>072-280300-
SOUTHEAST WISCONSIN

CITY           SKY/WX    TMP DP  RH WIND       PRES   REMARKS
MILWAUKEE      CLOUDY    71  67  87 NE3       30.05R
WAUKESHA       MOCLDY    72  68  88 CALM      30.07R
MILWAUKEE/TIMM PTCLDY    72  66  83 CALM      30.06R
RACINE         CLOUDY    74  70  87 S3        30.07R
BURLINGTON     PTCLDY    68  66  93 SW3       30.07R
KENOSHA        CLOUDY    75  71  87 SW6       30.07R
FOND DU LAC    CLOUDY    66  65  96 CALM      30.06R
SHEBOYGAN      FOG       65  63  93 CALM      30.07R VSB 3/4
WEST BEND      CLOUDY    68  64  88 CALM      30.07R
JUNEAU         CLOUDY    66  65  97 CALM      30.08R
$$

LSZ147-162-280300-
LAKE SUPERIOR

STATION/POSITION TIME  TEMP    WIND        PRES    WAVE
                       AIR SEA DIR/SP/G            HT/PER
                 (UTC) (F)     (DEG/KT/KT) (MB)    (FT/S)
W MID LAKE BUOY  0150   65 67   90/  8/ 12 1016.5S   1/ 3
DEVILS ISLAND    0200   62     250/  4/  5 1018.3R
PORT WING        0100   64      CALM  /  2 1017.3R
SAXON HARBOR     0100   64      CALM  /  2 1016.6
$$

LMZ867-665-643>646-280300-
LAKE MICHIGAN

STATION/POSITION TIME  TEMP    WIND        PRES    WAVE
                       AIR SEA DIR/SP/G            HT/PER
                 (UTC) (F)     (DEG/KT/KT) (MB)    (FT/S)
CHAMBERS ISLAND  0100   66      70/  3/  4 1016.9
S GREEN BAY BUOY 0100   65 71   80/  4/  6 1017.0
N MID LAKE BUOY  0150   67 70   70/  4/  4 1016.4S   1
NORTHPORT PIER   0100   66      30/  5/  6 1016.9F
SISTER BAY       0107   64      CALM  /  2   N/A
KEWAUNEE LAKESHO 0100   64                 1017.1R
SHEBOYGAN LAKESH 0200   61     350/  6/  6 1017.7R
PORT WASHINGTON  0140   63      40/  4/  7 1018.3R
ATWATER BUOY     0200   63     360/  8/ 10   N/A
MILWAUKEE LAKESH 0210   66      30/  6/  6   N/A
S MID LAKE BUOY  0150   76 75  150/  8/ 10 1017.0R   1/ 3
KENOSHA   LAKESH 0200   78     230/  8/ 11 1017.6R
$$

TC  - TEMPERATURE IN CELSIUS
VSB - VISIBILITY IN STATUTE MILES
WCI - WIND CHILL INDEX
HX  - HEAT INDEX





USA.gov is the U.S. government's official web portal to all federal, state and local government web resources and services.